TimeEDT,TemperatureF,Dew PointF,Humidity,Sea Level PressureIn,VisibilityMPH,Wind Direction,Wind SpeedMPH,Gust SpeedMPH,PrecipitationIn,Events,Conditions,WindDirDegrees,DateUTC
12:15 AM,64.4,59.0,83,30.29,10.0,Calm,Calm,-,N/A,,Clear,0,2013-08-18 04:15:00
12:35 AM,64.4,59.0,83,30.29,10.0,Calm,Calm,-,N/A,,Clear,0,2013-08-18 04:35:00
12:55 AM,62.6,59.0,88,30.28,10.0,Calm,Calm,-,N/A,,Clear,0,2013-08-18 04:55:00
1:15 AM,64.4,59.0,83,30.28,10.0,Calm,Calm,-,N/A,,Clear,0,2013-08-18 05:15:00
1:35 AM,64.4,59.0,83,30.27,10.0,Calm,Calm,-,N/A,,Clear,0,2013-08-18 05:35:00
1:55 AM,64.4,59.0,83,30.27,10.0,Calm,Calm,-,N/A,,Clear,0,2013-08-18 05:55:00
2:15 AM,64.4,60.8,88,30.26,10.0,Calm,Calm,-,N/A,,Clear,0,2013-08-18 06:15:00
2:35 AM,64.4,59.0,83,30.27,10.0,Calm,Calm,-,N/A,,Clear,0,2013-08-18 06:35:00
2:55 AM,64.4,59.0,83,30.27,10.0,Calm,Calm,-,N/A,,Clear,0,2013-08-18 06:55:00
3:15 AM,64.4,59.0,83,30.26,10.0,Calm,Calm,-,N/A,,Clear,0,2013-08-18 07:15:00
3:35 AM,64.4,60.8,88,30.26,10.0,Calm,Calm,-,N/A,,Clear,0,2013-08-18 07:35:00
3:55 AM,64.4,60.8,88,30.26,10.0,Calm,Calm,-,N/A,,Clear,0,2013-08-18 07:55:00
4:15 AM,62.6,60.8,94,30.25,10.0,Calm,Calm,-,N/A,,Clear,0,2013-08-18 08:15:00
4:35 AM,62.6,60.8,94,30.25,10.0,Calm,Calm,-,N/A,,Clear,0,2013-08-18 08:35:00
4:55 AM,62.6,60.8,94,30.26,10.0,Calm,Calm,-,N/A,,Clear,0,2013-08-18 08:55:00
5:15 AM,62.6,60.8,94,30.26,10.0,Calm,Calm,-,N/A,,Clear,0,2013-08-18 09:15:00
5:35 AM,62.6,60.8,94,30.26,10.0,Calm,Calm,-,N/A,,Clear,0,2013-08-18 09:35:00
5:55 AM,62.6,60.8,94,30.26,10.0,North,3.5,-,N/A,Rain,Light Rain,360,2013-08-18 09:55:00
6:15 AM,62.6,60.8,94,30.27,10.0,NNE,4.6,-,N/A,,Clear,20,2013-08-18 10:15:00
6:35 AM,62.6,60.8,94,30.27,10.0,North,3.5,-,N/A,Rain,Light Rain,10,2013-08-18 10:35:00
6:55 AM,62.6,60.8,94,30.27,10.0,NNE,3.5,-,N/A,,Clear,20,2013-08-18 10:55:00
7:15 AM,62.6,60.8,94,30.27,10.0,Calm,Calm,-,N/A,,Clear,0,2013-08-18 11:15:00
7:35 AM,62.6,60.8,94,30.28,10.0,North,3.5,-,N/A,,Partly Cloudy,10,2013-08-18 11:35:00
7:55 AM,62.6,60.8,94,30.28,10.0,North,5.8,-,N/A,,Partly Cloudy,360,2013-08-18 11:55:00
8:15 AM,64.4,60.8,88,30.28,10.0,NNE,3.5,-,N/A,,Clear,20,2013-08-18 12:15:00
8:35 AM,64.4,60.8,88,30.28,10.0,NE,3.5,-,N/A,,Partly Cloudy,40,2013-08-18 12:35:00
8:55 AM,64.4,59.0,83,30.28,10.0,Calm,Calm,-,N/A,,Partly Cloudy,0,2013-08-18 12:55:00
9:15 AM,64.4,60.8,88,30.28,10.0,Calm,Calm,-,N/A,,Clear,0,2013-08-18 13:15:00
9:35 AM,66.2,59.0,78,30.28,10.0,Calm,Calm,-,N/A,Rain,Light Rain,0,2013-08-18 13:35:00
9:55 AM,66.2,59.0,78,30.28,10.0,NNE,3.5,-,0.01,,Partly Cloudy,30,2013-08-18 13:55:00
10:15 AM,66.2,60.8,83,30.28,10.0,North,3.5,-,N/A,,Clear,10,2013-08-18 14:15:00
10:35 AM,68.0,57.2,68,30.28,10.0,NNE,3.5,-,N/A,,Clear,20,2013-08-18 14:35:00
10:55 AM,69.8,57.2,64,30.29,10.0,Calm,Calm,-,N/A,,Clear,0,2013-08-18 14:55:00
11:15 AM,69.8,57.2,64,30.29,10.0,Calm,Calm,-,N/A,,Clear,0,2013-08-18 15:15:00
11:35 AM,69.8,55.4,60,30.28,10.0,NNE,3.5,-,N/A,,Clear,30,2013-08-18 15:35:00
11:55 AM,71.6,57.2,60,30.28,10.0,NNE,3.5,-,N/A,,Clear,30,2013-08-18 15:55:00
12:15 PM,71.6,55.4,57,30.27,10.0,NE,3.5,-,N/A,,Clear,40,2013-08-18 16:15:00
12:35 PM,71.6,57.2,60,30.27,10.0,North,5.8,-,N/A,,Clear,360,2013-08-18 16:35:00
12:55 PM,71.6,57.2,60,30.26,10.0,North,5.8,-,N/A,,Clear,10,2013-08-18 16:55:00
1:15 PM,71.6,59.0,64,30.26,10.0,North,6.9,-,N/A,,Clear,10,2013-08-18 17:15:00
1:35 PM,71.6,59.0,64,30.25,10.0,NNE,4.6,-,N/A,,Clear,20,2013-08-18 17:35:00
1:55 PM,71.6,57.2,60,30.24,10.0,NNE,3.5,-,N/A,,Clear,20,2013-08-18 17:55:00
2:15 PM,71.6,57.2,60,30.24,10.0,NE,3.5,-,N/A,,Clear,50,2013-08-18 18:15:00
2:35 PM,71.6,57.2,60,30.23,10.0,NE,4.6,-,N/A,,Clear,50,2013-08-18 18:35:00
2:55 PM,71.6,57.2,60,30.22,10.0,North,5.8,-,N/A,,Clear,10,2013-08-18 18:55:00
3:15 PM,71.6,57.2,60,30.21,10.0,North,5.8,-,N/A,,Clear,10,2013-08-18 19:15:00
3:35 PM,71.6,57.2,60,30.21,10.0,North,5.8,-,N/A,,Clear,360,2013-08-18 19:35:00
3:55 PM,71.6,59.0,64,30.21,10.0,North,5.8,-,N/A,,Clear,360,2013-08-18 19:55:00
4:15 PM,69.8,60.8,73,30.21,10.0,North,9.2,-,N/A,,Clear,350,2013-08-18 20:15:00
4:35 PM,69.8,62.6,78,30.21,10.0,North,6.9,-,N/A,Rain,Light Rain,350,2013-08-18 20:35:00
4:55 PM,69.8,60.8,73,30.20,10.0,North,6.9,-,N/A,,Clear,350,2013-08-18 20:55:00
5:15 PM,69.8,60.8,73,30.20,10.0,North,6.9,-,N/A,,Clear,350,2013-08-18 21:15:00
5:35 PM,69.8,60.8,73,30.20,10.0,North,5.8,-,N/A,,Clear,350,2013-08-18 21:35:00
5:55 PM,68.0,60.8,78,30.20,10.0,NNW,8.1,-,N/A,,Clear,340,2013-08-18 21:55:00
6:15 PM,68.0,60.8,78,30.19,10.0,NNE,5.8,-,N/A,,Clear,20,2013-08-18 22:15:00
6:35 PM,68.0,59.0,73,30.19,10.0,North,4.6,-,N/A,,Clear,360,2013-08-18 22:35:00
6:55 PM,68.0,60.8,78,30.20,10.0,North,3.5,-,N/A,,Clear,350,2013-08-18 22:55:00
7:15 PM,68.0,59.0,73,30.20,10.0,NNW,3.5,-,N/A,,Clear,340,2013-08-18 23:15:00
7:35 PM,66.2,59.0,78,30.21,10.0,NNW,5.8,-,N/A,,Partly Cloudy,330,2013-08-18 23:35:00
7:55 PM,66.2,59.0,78,30.21,10.0,NNW,3.5,-,N/A,,Partly Cloudy,330,2013-08-18 23:55:00
8:15 PM,64.4,59.0,83,30.20,10.0,WNW,4.6,-,N/A,,Clear,300,2013-08-19 00:15:00
8:35 PM,64.4,59.0,83,30.20,10.0,WNW,3.5,-,N/A,,Clear,300,2013-08-19 00:35:00
8:55 PM,64.4,60.8,88,30.20,10.0,WNW,4.6,-,N/A,,Clear,290,2013-08-19 00:55:00
9:15 PM,64.4,59.0,83,30.20,10.0,WNW,3.5,-,N/A,,Clear,290,2013-08-19 01:15:00
9:35 PM,64.4,60.8,88,30.20,10.0,NW,3.5,-,N/A,,Clear,320,2013-08-19 01:35:00
9:55 PM,64.4,59.0,83,30.20,10.0,NNW,3.5,-,N/A,,Clear,330,2013-08-19 01:55:00
10:15 PM,64.4,60.8,88,30.20,10.0,WNW,3.5,-,N/A,,Partly Cloudy,300,2013-08-19 02:15:00
10:35 PM,64.4,60.8,88,30.20,10.0,Calm,Calm,-,N/A,,Partly Cloudy,0,2013-08-19 02:35:00
10:55 PM,62.6,59.0,88,30.21,10.0,West,3.5,-,N/A,,Clear,270,2013-08-19 02:55:00
11:15 PM,62.6,59.0,88,30.20,10.0,WNW,3.5,-,N/A,,Clear,300,2013-08-19 03:15:00
11:35 PM,62.6,59.0,88,30.20,10.0,WNW,4.6,-,N/A,,Mostly Cloudy,290,2013-08-19 03:35:00
11:55 PM,62.6,59.0,88,30.20,10.0,WNW,4.6,-,N/A,,Mostly Cloudy,300,2013-08-19 03:55:00